Year,Month,Day,Hour,Minute,Value (Times are PST for temperature in C)
2015,09,26,00,00,11.00
2015,09,26,00,01,10.90
2015,09,26,00,02,10.90
2015,09,26,00,03,10.90
2015,09,26,00,04,10.90
2015,09,26,00,05,10.90
2015,09,26,00,06,10.90
2015,09,26,00,07,10.90
2015,09,26,00,08,10.90
2015,09,26,00,09,10.90
2015,09,26,00,10,10.90
2015,09,26,00,11,10.80
2015,09,26,00,12,10.80
2015,09,26,00,13,10.80
2015,09,26,00,14,10.80
2015,09,26,00,15,10.80
2015,09,26,00,16,10.80
2015,09,26,00,17,10.80
2015,09,26,00,18,10.80
2015,09,26,00,19,10.80
2015,09,26,00,20,10.80
2015,09,26,00,21,10.80
2015,09,26,00,22,10.80
2015,09,26,00,23,10.80
2015,09,26,00,24,10.80
2015,09,26,00,25,10.80
2015,09,26,00,26,10.80
2015,09,26,00,27,10.70
2015,09,26,00,28,10.70
2015,09,26,00,29,10.70
2015,09,26,00,30,10.70
2015,09,26,00,31,10.70
2015,09,26,00,32,10.70
2015,09,26,00,33,10.70
2015,09,26,00,34,10.70
2015,09,26,00,35,10.70
2015,09,26,00,36,10.60
2015,09,26,00,37,10.60
2015,09,26,00,38,10.60
2015,09,26,00,39,10.60
2015,09,26,00,40,10.60
2015,09,26,00,41,10.60
2015,09,26,00,42,10.60
2015,09,26,00,43,10.60
2015,09,26,00,44,10.60
2015,09,26,00,45,10.60
2015,09,26,00,46,10.50
2015,09,26,00,47,10.50
2015,09,26,00,48,10.50
2015,09,26,00,49,10.50
2015,09,26,00,50,10.50
2015,09,26,00,51,10.50
2015,09,26,00,52,10.50
2015,09,26,00,53,10.50
2015,09,26,00,54,10.50
2015,09,26,00,55,10.50
2015,09,26,00,56,10.50
2015,09,26,00,57,10.50
2015,09,26,00,58,10.50
2015,09,26,00,59,10.50
2015,09,26,01,00,10.40
2015,09,26,01,01,10.40
2015,09,26,01,02,10.40
2015,09,26,01,03,10.40
2015,09,26,01,04,10.40
2015,09,26,01,05,10.40
2015,09,26,01,06,10.40
2015,09,26,01,07,10.40
2015,09,26,01,08,10.40
2015,09,26,01,09,10.40
2015,09,26,01,10,10.40
2015,09,26,01,11,10.40
2015,09,26,01,12,10.30
2015,09,26,01,13,10.30
2015,09,26,01,14,10.30
2015,09,26,01,15,10.30
2015,09,26,01,16,10.30
2015,09,26,01,17,10.30
2015,09,26,01,18,10.30
2015,09,26,01,19,10.30
2015,09,26,01,20,10.30
2015,09,26,01,21,10.30
2015,09,26,01,22,10.30
2015,09,26,01,23,10.30
2015,09,26,01,24,10.30
2015,09,26,01,25,10.30
2015,09,26,01,26,10.30
2015,09,26,01,27,10.30
2015,09,26,01,28,10.30
2015,09,26,01,29,10.30
2015,09,26,01,30,10.30
2015,09,26,01,31,10.30
2015,09,26,01,32,10.30
2015,09,26,01,33,10.30
2015,09,26,01,34,10.30
2015,09,26,01,35,10.30
2015,09,26,01,36,10.30
2015,09,26,01,37,10.30
2015,09,26,01,38,10.30
2015,09,26,01,39,10.30
2015,09,26,01,40,10.30
2015,09,26,01,41,10.30
2015,09,26,01,42,10.30
2015,09,26,01,43,10.30
2015,09,26,01,44,10.40
2015,09,26,01,45,10.30
2015,09,26,01,46,10.40
2015,09,26,01,47,10.40
2015,09,26,01,48,10.40
2015,09,26,01,49,10.40
2015,09,26,01,50,10.40
2015,09,26,01,51,10.40
2015,09,26,01,52,10.40
2015,09,26,01,53,10.40
2015,09,26,01,54,10.30
2015,09,26,01,55,10.30
2015,09,26,01,56,10.30
2015,09,26,01,57,10.30
2015,09,26,01,58,10.30
2015,09,26,01,59,10.30
2015,09,26,02,00,10.30
2015,09,26,02,01,10.40
2015,09,26,02,02,10.40
2015,09,26,02,03,10.40
2015,09,26,02,04,10.40
2015,09,26,02,05,10.40
2015,09,26,02,06,10.40
2015,09,26,02,07,10.40
2015,09,26,02,08,10.40
2015,09,26,02,09,10.40
2015,09,26,02,10,10.40
2015,09,26,02,11,10.40
2015,09,26,02,12,10.40
2015,09,26,02,13,10.40
2015,09,26,02,14,10.40
2015,09,26,02,15,10.40
2015,09,26,02,16,10.40
2015,09,26,02,17,10.40
2015,09,26,02,18,10.40
2015,09,26,02,19,10.40
2015,09,26,02,20,10.40
2015,09,26,02,21,10.40
2015,09,26,02,22,10.40
2015,09,26,02,23,10.40
2015,09,26,02,24,10.40
2015,09,26,02,25,10.40
2015,09,26,02,26,10.40
2015,09,26,02,27,10.40
2015,09,26,02,28,10.50
2015,09,26,02,29,10.50
2015,09,26,02,30,10.50
2015,09,26,02,31,10.50
2015,09,26,02,32,10.50
2015,09,26,02,33,10.50
2015,09,26,02,34,10.50
2015,09,26,02,35,10.50
2015,09,26,02,36,10.50
2015,09,26,02,37,10.50
2015,09,26,02,38,10.50
2015,09,26,02,39,10.50
2015,09,26,02,40,10.50
2015,09,26,02,41,10.50
2015,09,26,02,42,10.50
2015,09,26,02,43,10.40
2015,09,26,02,44,10.50
2015,09,26,02,45,10.50
2015,09,26,02,46,10.40
2015,09,26,02,47,10.40
2015,09,26,02,48,10.40
2015,09,26,02,49,10.40
2015,09,26,02,50,10.40
2015,09,26,02,51,10.40
2015,09,26,02,52,10.40
2015,09,26,02,53,10.40
2015,09,26,02,54,10.40
2015,09,26,02,55,10.40
2015,09,26,02,56,10.40
2015,09,26,02,57,10.40
2015,09,26,02,58,10.40
2015,09,26,02,59,10.40
2015,09,26,03,00,10.40
2015,09,26,03,01,10.40
2015,09,26,03,02,10.40
2015,09,26,03,03,10.40
2015,09,26,03,04,10.40
2015,09,26,03,05,10.40
2015,09,26,03,06,10.40
2015,09,26,03,07,10.40
2015,09,26,03,08,10.40
2015,09,26,03,09,10.40
2015,09,26,03,10,10.40
2015,09,26,03,11,10.40
2015,09,26,03,12,10.40
2015,09,26,03,13,10.40
2015,09,26,03,14,10.40
2015,09,26,03,15,10.40
2015,09,26,03,16,10.40
2015,09,26,03,17,10.40
2015,09,26,03,18,10.40
2015,09,26,03,19,10.40
2015,09,26,03,20,10.40
2015,09,26,03,21,10.40
2015,09,26,03,22,10.30
2015,09,26,03,23,10.30
2015,09,26,03,24,10.30
2015,09,26,03,25,10.30
2015,09,26,03,26,10.30
2015,09,26,03,27,10.30
2015,09,26,03,28,10.30
2015,09,26,03,29,10.30
2015,09,26,03,30,10.30
2015,09,26,03,31,10.30
2015,09,26,03,32,10.20
2015,09,26,03,33,10.20
2015,09,26,03,34,10.20
2015,09,26,03,35,10.20
2015,09,26,03,36,10.20
2015,09,26,03,37,10.20
2015,09,26,03,38,10.10
2015,09,26,03,39,10.10
2015,09,26,03,40,10.10
2015,09,26,03,41,10.10
2015,09,26,03,42,10.10
2015,09,26,03,43,10.00
2015,09,26,03,44,10.00
2015,09,26,03,45,10.00
2015,09,26,03,46,9.90
2015,09,26,03,47,9.90
2015,09,26,03,48,9.90
2015,09,26,03,49,9.80
2015,09,26,03,50,9.80
2015,09,26,03,51,9.80
2015,09,26,03,52,9.70
2015,09,26,03,53,9.70
2015,09,26,03,54,9.70
2015,09,26,03,55,9.60
2015,09,26,03,56,9.50
2015,09,26,03,57,9.50
2015,09,26,03,58,9.40
2015,09,26,03,59,9.40
2015,09,26,04,00,9.30
2015,09,26,04,01,9.30
2015,09,26,04,02,9.30
2015,09,26,04,03,9.20
2015,09,26,04,04,9.20
2015,09,26,04,05,9.10
2015,09,26,04,06,9.10
2015,09,26,04,07,9.00
2015,09,26,04,08,9.00
2015,09,26,04,09,8.90
2015,09,26,04,10,8.90
2015,09,26,04,11,8.90
2015,09,26,04,12,8.90
2015,09,26,04,13,8.80
2015,09,26,04,14,8.80
2015,09,26,04,15,8.80
2015,09,26,04,16,8.80
2015,09,26,04,17,8.80
2015,09,26,04,18,8.80
2015,09,26,04,19,8.80
2015,09,26,04,20,8.80
2015,09,26,04,21,8.80
2015,09,26,04,22,8.80
2015,09,26,04,23,8.80
2015,09,26,04,24,8.80
2015,09,26,04,25,8.70
2015,09,26,04,26,8.70
2015,09,26,04,27,8.70
2015,09,26,04,28,8.70
2015,09,26,04,29,8.70
2015,09,26,04,30,8.70
2015,09,26,04,31,8.70
2015,09,26,04,32,8.70
2015,09,26,04,33,8.60
2015,09,26,04,34,8.60
2015,09,26,04,35,8.60
2015,09,26,04,36,8.60
2015,09,26,04,37,8.60
2015,09,26,04,38,8.60
2015,09,26,04,39,8.60
2015,09,26,04,40,8.50
2015,09,26,04,41,8.50
2015,09,26,04,42,8.50
2015,09,26,04,43,8.50
2015,09,26,04,44,8.50
2015,09,26,04,45,8.50
2015,09,26,04,46,8.40
2015,09,26,04,47,8.40
2015,09,26,04,48,8.40
2015,09,26,04,49,8.40
2015,09,26,04,50,8.40
2015,09,26,04,51,8.40
2015,09,26,04,52,8.30
2015,09,26,04,53,8.30
2015,09,26,04,54,8.30
2015,09,26,04,55,8.30
2015,09,26,04,56,8.30
2015,09,26,04,57,8.30
2015,09,26,04,58,8.30
2015,09,26,04,59,8.30
2015,09,26,05,00,8.20
2015,09,26,05,01,8.20
2015,09,26,05,02,8.20
2015,09,26,05,03,8.20
2015,09,26,05,04,8.20
2015,09,26,05,05,8.20
2015,09,26,05,06,8.20
2015,09,26,05,07,8.20
2015,09,26,05,08,8.10
2015,09,26,05,09,8.10
2015,09,26,05,10,8.10
2015,09,26,05,11,8.10
2015,09,26,05,12,8.00
2015,09,26,05,13,8.00
2015,09,26,05,14,7.90
2015,09,26,05,15,7.90
2015,09,26,05,16,7.90
2015,09,26,05,17,7.80
2015,09,26,05,18,7.80
2015,09,26,05,19,7.80
2015,09,26,05,20,7.80
2015,09,26,05,21,7.80
2015,09,26,05,22,7.70
2015,09,26,05,23,7.70
2015,09,26,05,24,7.70
2015,09,26,05,25,7.70
2015,09,26,05,26,7.70
2015,09,26,05,27,7.70
2015,09,26,05,28,7.70
2015,09,26,05,29,7.70
2015,09,26,05,30,7.60
2015,09,26,05,31,7.60
2015,09,26,05,32,7.60
2015,09,26,05,33,7.60
2015,09,26,05,34,7.50
2015,09,26,05,35,7.50
2015,09,26,05,36,7.50
2015,09,26,05,37,7.40
2015,09,26,05,38,7.40
2015,09,26,05,39,7.40
2015,09,26,05,40,7.40
2015,09,26,05,41,7.30
2015,09,26,05,42,7.30
2015,09,26,05,43,7.30
2015,09,26,05,44,7.30
2015,09,26,05,45,7.30
2015,09,26,05,46,7.30
2015,09,26,05,47,7.30
2015,09,26,05,48,7.30
2015,09,26,05,49,7.30
2015,09,26,05,50,7.30
2015,09,26,05,51,7.30
2015,09,26,05,52,7.30
2015,09,26,05,53,7.30
2015,09,26,05,54,7.30
2015,09,26,05,55,7.30
2015,09,26,05,56,7.30
2015,09,26,05,57,7.20
2015,09,26,05,58,7.20
2015,09,26,05,59,7.20
2015,09,26,06,00,7.20
2015,09,26,06,01,7.20
2015,09,26,06,02,7.20
2015,09,26,06,03,7.10
2015,09,26,06,04,7.10
2015,09,26,06,05,7.10
2015,09,26,06,06,7.10
2015,09,26,06,07,7.10
2015,09,26,06,08,7.10
2015,09,26,06,09,7.10
2015,09,26,06,10,7.00
2015,09,26,06,11,7.00
2015,09,26,06,12,7.00
2015,09,26,06,13,7.00
2015,09,26,06,14,7.00
2015,09,26,06,15,7.00
2015,09,26,06,16,7.00
2015,09,26,06,17,6.90
2015,09,26,06,18,6.90
2015,09,26,06,19,6.90
2015,09,26,06,20,6.90
2015,09,26,06,21,6.90
2015,09,26,06,22,6.90
2015,09,26,06,23,6.90
2015,09,26,06,24,7.00
2015,09,26,06,25,7.00
2015,09,26,06,26,7.00
2015,09,26,06,27,7.10
2015,09,26,06,28,7.10
2015,09,26,06,29,7.10
2015,09,26,06,30,7.20
2015,09,26,06,31,7.20
2015,09,26,06,32,7.20
2015,09,26,06,33,7.20
2015,09,26,06,34,7.20
2015,09,26,06,35,7.20
2015,09,26,06,36,7.20
2015,09,26,06,37,7.20
2015,09,26,06,38,7.20
2015,09,26,06,39,7.10
2015,09,26,06,40,7.10
2015,09,26,06,41,7.10
2015,09,26,06,42,7.10
2015,09,26,06,43,7.10
2015,09,26,06,44,7.10
2015,09,26,06,45,7.10
2015,09,26,06,46,7.10
2015,09,26,06,47,7.10
2015,09,26,06,48,7.10
2015,09,26,06,49,7.10
2015,09,26,06,50,7.10
2015,09,26,06,51,7.10
2015,09,26,06,52,7.10
2015,09,26,06,53,7.00
2015,09,26,06,54,7.00
2015,09,26,06,55,7.00
2015,09,26,06,56,7.00
2015,09,26,06,57,7.00
2015,09,26,06,58,7.00
2015,09,26,06,59,7.00
2015,09,26,07,00,7.00
2015,09,26,07,01,7.00
2015,09,26,07,02,7.00
2015,09,26,07,03,7.00
2015,09,26,07,04,7.00
2015,09,26,07,05,7.00
2015,09,26,07,06,7.10
2015,09,26,07,07,7.10
2015,09,26,07,08,7.10
2015,09,26,07,09,7.10
2015,09,26,07,10,7.10
2015,09,26,07,11,7.10
2015,09,26,07,12,7.10
2015,09,26,07,13,7.10
2015,09,26,07,14,7.10
2015,09,26,07,15,7.10
2015,09,26,07,16,7.10
2015,09,26,07,17,7.20
2015,09,26,07,18,7.20
2015,09,26,07,19,7.20
2015,09,26,07,20,7.20
2015,09,26,07,21,7.20
2015,09,26,07,22,7.30
2015,09,26,07,23,7.30
2015,09,26,07,24,7.40
2015,09,26,07,25,7.40
2015,09,26,07,26,7.50
2015,09,26,07,27,7.50
2015,09,26,07,28,7.60
2015,09,26,07,29,7.60
2015,09,26,07,30,7.70
2015,09,26,07,31,7.70
2015,09,26,07,32,7.70
2015,09,26,07,33,7.70
2015,09,26,07,34,7.70
2015,09,26,07,35,7.80
2015,09,26,07,36,7.80
2015,09,26,07,37,7.80
2015,09,26,07,38,7.80
2015,09,26,07,39,7.80
2015,09,26,07,40,7.90
2015,09,26,07,41,7.90
2015,09,26,07,42,7.90
2015,09,26,07,43,7.90
2015,09,26,07,44,8.00
2015,09,26,07,45,8.00
2015,09,26,07,46,8.00
2015,09,26,07,47,8.10
2015,09,26,07,48,8.10
2015,09,26,07,49,8.10
2015,09,26,07,50,8.10
2015,09,26,07,51,8.10
2015,09,26,07,52,8.20
2015,09,26,07,53,8.20
2015,09,26,07,54,8.20
2015,09,26,07,55,8.20
2015,09,26,07,56,8.30
2015,09,26,07,57,8.30
2015,09,26,07,58,8.30
2015,09,26,07,59,8.30
2015,09,26,08,00,8.30
2015,09,26,08,01,8.30
2015,09,26,08,02,8.30
2015,09,26,08,03,8.30
2015,09,26,08,04,8.20
2015,09,26,08,05,8.20
2015,09,26,08,06,8.20
2015,09,26,08,07,8.30
2015,09,26,08,08,8.30
2015,09,26,08,09,8.30
2015,09,26,08,10,8.30
2015,09,26,08,11,8.30
2015,09,26,08,12,8.30
2015,09,26,08,13,8.30
2015,09,26,08,14,8.30
2015,09,26,08,15,8.40
2015,09,26,08,16,8.40
2015,09,26,08,17,8.40
2015,09,26,08,18,8.40
2015,09,26,08,19,8.40
2015,09,26,08,20,8.40
2015,09,26,08,21,8.40
2015,09,26,08,22,8.50
2015,09,26,08,23,8.50
2015,09,26,08,24,8.50
2015,09,26,08,25,8.60
2015,09,26,08,26,8.60
2015,09,26,08,27,8.60
2015,09,26,08,28,8.60
2015,09,26,08,29,8.70
2015,09,26,08,30,8.70
2015,09,26,08,31,8.70
2015,09,26,08,32,8.80
2015,09,26,08,33,8.80
2015,09,26,08,34,8.80
2015,09,26,08,35,8.80
2015,09,26,08,36,8.90
2015,09,26,08,37,8.90
2015,09,26,08,38,8.90
2015,09,26,08,39,8.90
2015,09,26,08,40,9.00
2015,09,26,08,41,9.00
2015,09,26,08,42,9.00
2015,09,26,08,43,9.10
2015,09,26,08,44,9.10
2015,09,26,08,45,9.10
2015,09,26,08,46,9.20
2015,09,26,08,47,9.20
2015,09,26,08,48,9.20
2015,09,26,08,49,9.30
2015,09,26,08,50,9.30
2015,09,26,08,51,9.30
2015,09,26,08,52,9.30
2015,09,26,08,53,9.40
2015,09,26,08,54,9.40
2015,09,26,08,55,9.40
2015,09,26,08,56,9.50
2015,09,26,08,57,9.50
2015,09,26,08,58,9.50
2015,09,26,08,59,9.60
2015,09,26,09,00,9.60
2015,09,26,09,01,9.60
2015,09,26,09,02,9.70
2015,09,26,09,03,9.70
2015,09,26,09,04,9.70
2015,09,26,09,05,9.80
2015,09,26,09,06,9.80
2015,09,26,09,07,9.80
2015,09,26,09,08,9.90
2015,09,26,09,09,10.00
2015,09,26,09,10,10.10
2015,09,26,09,11,10.20
2015,09,26,09,12,10.30
2015,09,26,09,13,10.30
2015,09,26,09,14,10.40
2015,09,26,09,15,10.50
2015,09,26,09,16,10.60
2015,09,26,09,17,10.60
2015,09,26,09,18,10.60
2015,09,26,09,19,10.70
2015,09,26,09,20,10.70
2015,09,26,09,21,10.70
2015,09,26,09,22,10.70
2015,09,26,09,23,10.70
2015,09,26,09,24,10.70
2015,09,26,09,25,10.70
2015,09,26,09,26,10.80
2015,09,26,09,27,10.80
2015,09,26,09,28,10.80
2015,09,26,09,29,10.90
2015,09,26,09,30,10.90
2015,09,26,09,31,10.90
2015,09,26,09,32,11.00
2015,09,26,09,33,11.00
2015,09,26,09,34,11.10
2015,09,26,09,35,11.10
2015,09,26,09,36,11.10
2015,09,26,09,37,11.20
2015,09,26,09,38,11.20
2015,09,26,09,39,11.30
2015,09,26,09,40,11.30
2015,09,26,09,41,11.40
2015,09,26,09,42,11.50
2015,09,26,09,43,11.60
2015,09,26,09,44,11.70
2015,09,26,09,45,11.80
2015,09,26,09,46,11.80
2015,09,26,09,47,11.90
2015,09,26,09,48,12.00
2015,09,26,09,49,12.10
2015,09,26,09,50,12.10
2015,09,26,09,51,12.20
2015,09,26,09,52,12.30
2015,09,26,09,53,12.30
2015,09,26,09,54,12.30
2015,09,26,09,55,12.40
2015,09,26,09,56,12.40
2015,09,26,09,57,12.40
2015,09,26,09,58,12.40
2015,09,26,09,59,12.50
2015,09,26,10,00,12.50
2015,09,26,10,01,12.60
2015,09,26,10,02,12.60
2015,09,26,10,03,12.70
2015,09,26,10,04,12.70
2015,09,26,10,05,12.70
2015,09,26,10,06,12.80
2015,09,26,10,07,12.80
2015,09,26,10,08,12.80
2015,09,26,10,09,12.90
2015,09,26,10,10,12.90
2015,09,26,10,11,13.00
2015,09,26,10,12,13.00
2015,09,26,10,13,13.10
2015,09,26,10,14,13.20
2015,09,26,10,15,13.30
2015,09,26,10,16,13.30
2015,09,26,10,17,13.40
2015,09,26,10,18,13.40
2015,09,26,10,19,13.50
2015,09,26,10,20,13.60
2015,09,26,10,21,13.70
2015,09,26,10,22,13.80
2015,09,26,10,23,13.80
2015,09,26,10,24,13.90
2015,09,26,10,25,13.90
2015,09,26,10,26,13.90
2015,09,26,10,27,14.00
2015,09,26,10,28,14.00
2015,09,26,10,29,14.10
2015,09,26,10,30,14.10
2015,09,26,10,31,14.10
2015,09,26,10,32,14.10
2015,09,26,10,33,14.20
2015,09,26,10,34,14.20
2015,09,26,10,35,14.20
2015,09,26,10,36,14.30
2015,09,26,10,37,14.30
2015,09,26,10,38,14.30
2015,09,26,10,39,14.40
2015,09,26,10,40,14.40
2015,09,26,10,41,14.40
2015,09,26,10,42,14.40
2015,09,26,10,43,14.50
2015,09,26,10,44,14.50
2015,09,26,10,45,14.50
2015,09,26,10,46,14.50
2015,09,26,10,47,14.60
2015,09,26,10,48,14.60
2015,09,26,10,49,14.60
2015,09,26,10,50,14.60
2015,09,26,10,51,14.60
2015,09,26,10,52,14.60
2015,09,26,10,53,14.70
2015,09,26,10,54,14.70
2015,09,26,10,55,14.70
2015,09,26,10,56,14.70
2015,09,26,10,57,14.70
2015,09,26,10,58,14.70
2015,09,26,10,59,14.80
2015,09,26,11,00,14.80
2015,09,26,11,01,14.80
2015,09,26,11,02,14.80
2015,09,26,11,03,14.80
2015,09,26,11,04,14.80
2015,09,26,11,05,14.80
2015,09,26,11,06,14.80
2015,09,26,11,07,14.80
2015,09,26,11,08,14.80
2015,09,26,11,09,14.80
2015,09,26,11,10,14.80
2015,09,26,11,11,14.80
2015,09,26,11,12,14.80
2015,09,26,11,13,14.70
2015,09,26,11,14,14.70
2015,09,26,11,15,14.70
2015,09,26,11,16,14.60
2015,09,26,11,17,14.60
2015,09,26,11,18,14.60
2015,09,26,11,19,14.70
2015,09,26,11,20,14.70
2015,09,26,11,21,14.70
2015,09,26,11,22,14.70
2015,09,26,11,23,14.70
2015,09,26,11,24,14.80
2015,09,26,11,25,14.80
2015,09,26,11,26,14.80
2015,09,26,11,27,14.80
2015,09,26,11,28,14.80
2015,09,26,11,29,14.90
2015,09,26,11,30,14.90
2015,09,26,11,31,14.90
2015,09,26,11,32,14.90
2015,09,26,11,33,14.90
2015,09,26,11,34,15.00
2015,09,26,11,35,15.00
2015,09,26,11,36,15.00
2015,09,26,11,37,15.00
2015,09,26,11,38,15.00
2015,09,26,11,39,15.10
2015,09,26,11,40,15.10
2015,09,26,11,41,15.10
2015,09,26,11,42,15.00
2015,09,26,11,43,15.00
2015,09,26,11,44,15.00
2015,09,26,11,45,15.00
2015,09,26,11,46,15.00
2015,09,26,11,47,15.00
2015,09,26,11,48,15.10
2015,09,26,11,49,15.00
2015,09,26,11,50,15.10
2015,09,26,11,51,15.10
2015,09,26,11,52,15.10
2015,09,26,11,53,15.10
2015,09,26,11,54,15.10
2015,09,26,11,55,15.20
2015,09,26,11,56,15.20
2015,09,26,11,57,15.20
2015,09,26,11,58,15.20
2015,09,26,11,59,15.30
2015,09,26,12,00,15.30
2015,09,26,12,01,15.30
2015,09,26,12,02,15.30
2015,09,26,12,03,15.30
2015,09,26,12,04,15.30
2015,09,26,12,05,15.30
2015,09,26,12,06,15.30
2015,09,26,12,07,15.30
2015,09,26,12,08,15.30
2015,09,26,12,09,15.30
2015,09,26,12,10,15.30
2015,09,26,12,11,15.30
2015,09,26,12,12,15.30
2015,09,26,12,13,15.30
2015,09,26,12,14,15.30
2015,09,26,12,15,15.30
2015,09,26,12,16,15.30
2015,09,26,12,17,15.30
2015,09,26,12,18,15.30
2015,09,26,12,19,15.30
2015,09,26,12,20,15.30
2015,09,26,12,21,15.30
2015,09,26,12,22,15.30
2015,09,26,12,23,15.30
2015,09,26,12,24,15.30
2015,09,26,12,25,15.30
2015,09,26,12,26,15.20
2015,09,26,12,27,15.20
2015,09,26,12,28,15.20
2015,09,26,12,29,15.30
2015,09,26,12,30,15.30
2015,09,26,12,31,15.30
2015,09,26,12,32,15.30
2015,09,26,12,33,15.30
2015,09,26,12,34,15.40
2015,09,26,12,35,15.40
2015,09,26,12,36,15.50
2015,09,26,12,37,15.50
2015,09,26,12,38,15.60
2015,09,26,12,39,15.60
2015,09,26,12,40,15.70
2015,09,26,12,41,15.70
2015,09,26,12,42,15.70
2015,09,26,12,43,15.70
2015,09,26,12,44,15.80
2015,09,26,12,45,15.80
2015,09,26,12,46,15.80
2015,09,26,12,47,15.80
2015,09,26,12,48,15.80
2015,09,26,12,49,15.80
2015,09,26,12,50,15.80
2015,09,26,12,51,15.70
2015,09,26,12,52,15.70
2015,09,26,12,53,15.70
2015,09,26,12,54,15.70
2015,09,26,12,55,15.70
2015,09,26,12,56,15.80
2015,09,26,12,57,15.80
2015,09,26,12,58,15.80
2015,09,26,12,59,15.80
2015,09,26,13,00,15.80
2015,09,26,13,01,15.90
2015,09,26,13,02,15.90
2015,09,26,13,03,15.90
2015,09,26,13,04,15.90
2015,09,26,13,05,15.90
2015,09,26,13,06,15.90
2015,09,26,13,07,15.90
2015,09,26,13,08,15.90
2015,09,26,13,09,15.90
2015,09,26,13,10,16.00
2015,09,26,13,11,15.90
2015,09,26,13,12,16.00
2015,09,26,13,13,16.00
2015,09,26,13,14,16.00
2015,09,26,13,15,16.10
2015,09,26,13,16,16.10
2015,09,26,13,17,16.10
2015,09,26,13,18,16.20
2015,09,26,13,19,16.20
2015,09,26,13,20,16.20
2015,09,26,13,21,16.20
2015,09,26,13,22,16.30
2015,09,26,13,23,16.30
2015,09,26,13,24,16.40
2015,09,26,13,25,16.40
2015,09,26,13,26,16.40
2015,09,26,13,27,16.40
2015,09,26,13,28,16.40
2015,09,26,13,29,16.40
2015,09,26,13,30,16.40
2015,09,26,13,31,16.40
2015,09,26,13,32,16.40
2015,09,26,13,33,16.40
2015,09,26,13,34,16.40
2015,09,26,13,35,16.40
2015,09,26,13,36,16.40
2015,09,26,13,37,16.40
2015,09,26,13,38,16.40
2015,09,26,13,39,16.40
2015,09,26,13,40,16.40
2015,09,26,13,41,16.40
2015,09,26,13,42,16.40
2015,09,26,13,43,16.40
2015,09,26,13,44,16.40
2015,09,26,13,45,16.40
2015,09,26,13,46,16.50
2015,09,26,13,47,16.50
2015,09,26,13,48,16.50
2015,09,26,13,49,16.60
2015,09,26,13,50,16.60
2015,09,26,13,51,16.60
2015,09,26,13,52,16.60
2015,09,26,13,53,16.60
2015,09,26,13,54,16.60
2015,09,26,13,55,16.60
2015,09,26,13,56,16.60
2015,09,26,13,57,16.70
2015,09,26,13,58,16.70
2015,09,26,13,59,16.70
2015,09,26,14,00,16.70
2015,09,26,14,01,16.70
2015,09,26,14,02,16.70
2015,09,26,14,03,16.70
2015,09,26,14,04,16.60
2015,09,26,14,05,16.60
2015,09,26,14,06,16.50
2015,09,26,14,07,16.50
2015,09,26,14,08,16.40
2015,09,26,14,09,16.30
2015,09,26,14,10,16.30
2015,09,26,14,11,16.20
2015,09,26,14,12,16.20
2015,09,26,14,13,16.10
2015,09,26,14,14,16.10
2015,09,26,14,15,16.00
2015,09,26,14,16,15.90
2015,09,26,14,17,15.90
2015,09,26,14,18,15.80
2015,09,26,14,19,15.80
2015,09,26,14,20,15.80
2015,09,26,14,21,15.80
2015,09,26,14,22,15.80
2015,09,26,14,23,15.80
2015,09,26,14,24,15.80
2015,09,26,14,25,15.80
2015,09,26,14,26,15.80
2015,09,26,14,27,15.90
2015,09,26,14,28,15.90
2015,09,26,14,29,16.00
2015,09,26,14,30,16.00
2015,09,26,14,31,16.10
2015,09,26,14,32,16.10
2015,09,26,14,33,16.20
2015,09,26,14,34,16.20
2015,09,26,14,35,16.30
2015,09,26,14,36,16.30
2015,09,26,14,37,16.30
2015,09,26,14,38,16.40
2015,09,26,14,39,16.40
2015,09,26,14,40,16.40
2015,09,26,14,41,16.40
2015,09,26,14,42,16.50
2015,09,26,14,43,16.50
2015,09,26,14,44,16.60
2015,09,26,14,45,16.60
2015,09,26,14,46,16.70
2015,09,26,14,47,16.70
2015,09,26,14,48,16.70
2015,09,26,14,49,16.80
2015,09,26,14,50,16.80
2015,09,26,14,51,16.80
2015,09,26,14,52,16.70
2015,09,26,14,53,16.70
2015,09,26,14,54,16.70
2015,09,26,14,55,16.70
2015,09,26,14,56,16.70
2015,09,26,14,57,16.80
2015,09,26,14,58,16.80
2015,09,26,14,59,16.80
2015,09,26,15,00,16.80
2015,09,26,15,01,16.90
2015,09,26,15,02,16.90
2015,09,26,15,03,17.00
2015,09,26,15,04,17.00
2015,09,26,15,05,17.10
2015,09,26,15,06,17.10
2015,09,26,15,07,17.20
2015,09,26,15,08,17.20
2015,09,26,15,09,17.30
2015,09,26,15,10,17.30
2015,09,26,15,11,17.30
2015,09,26,15,12,17.30
2015,09,26,15,13,17.20
2015,09,26,15,14,17.10
2015,09,26,15,15,17.00
2015,09,26,15,16,17.00
2015,09,26,15,17,16.90
2015,09,26,15,18,16.80
2015,09,26,15,19,16.80
2015,09,26,15,20,16.80
2015,09,26,15,21,16.70
2015,09,26,15,22,16.70
2015,09,26,15,23,16.70
2015,09,26,15,24,16.60
2015,09,26,15,25,16.60
2015,09,26,15,26,16.50
2015,09,26,15,27,16.50
2015,09,26,15,28,16.40
2015,09,26,15,29,16.40
2015,09,26,15,30,16.40
2015,09,26,15,31,16.40
2015,09,26,15,32,16.40
2015,09,26,15,33,16.50
2015,09,26,15,34,16.50
2015,09,26,15,35,16.50
2015,09,26,15,36,16.50
2015,09,26,15,37,16.50
2015,09,26,15,38,16.50
2015,09,26,15,39,16.60
2015,09,26,15,40,16.60
2015,09,26,15,41,16.70
2015,09,26,15,42,16.70
2015,09,26,15,43,16.70
2015,09,26,15,44,16.70
2015,09,26,15,45,16.70
2015,09,26,15,46,16.70
2015,09,26,15,47,16.70
2015,09,26,15,48,16.60
2015,09,26,15,49,16.60
2015,09,26,15,50,16.60
2015,09,26,15,51,16.60
2015,09,26,15,52,16.50
2015,09,26,15,53,16.50
2015,09,26,15,54,16.50
2015,09,26,15,55,16.40
2015,09,26,15,56,16.30
2015,09,26,15,57,16.20
2015,09,26,15,58,16.20
2015,09,26,15,59,16.10
2015,09,26,16,00,16.00
2015,09,26,16,01,16.00
2015,09,26,16,02,16.00
2015,09,26,16,03,15.90
2015,09,26,16,04,15.90
2015,09,26,16,05,15.90
2015,09,26,16,06,15.90
2015,09,26,16,07,15.90
2015,09,26,16,08,15.90
2015,09,26,16,09,15.90
2015,09,26,16,10,15.80
2015,09,26,16,11,15.80
2015,09,26,16,12,15.80
2015,09,26,16,13,15.70
2015,09,26,16,14,15.70
2015,09,26,16,15,15.70
2015,09,26,16,16,15.70
2015,09,26,16,17,15.70
2015,09,26,16,18,15.70
2015,09,26,16,19,15.70
2015,09,26,16,20,15.70
2015,09,26,16,21,15.70
2015,09,26,16,22,15.70
2015,09,26,16,23,15.70
2015,09,26,16,24,15.70
2015,09,26,16,25,15.70
2015,09,26,16,26,15.70
2015,09,26,16,27,15.70
2015,09,26,16,28,15.70
2015,09,26,16,29,15.70
2015,09,26,16,30,15.70
2015,09,26,16,31,15.80
2015,09,26,16,32,15.80
2015,09,26,16,33,15.80
2015,09,26,16,34,15.80
2015,09,26,16,35,15.80
2015,09,26,16,36,15.80
2015,09,26,16,37,15.80
2015,09,26,16,38,15.80
2015,09,26,16,39,15.80
2015,09,26,16,40,15.80
2015,09,26,16,41,15.80
2015,09,26,16,42,15.70
2015,09,26,16,43,15.70
2015,09,26,16,44,15.60
2015,09,26,16,45,15.60
2015,09,26,16,46,15.60
2015,09,26,16,47,15.60
2015,09,26,16,48,15.50
2015,09,26,16,49,15.50
2015,09,26,16,50,15.50
2015,09,26,16,51,15.50
2015,09,26,16,52,15.40
2015,09,26,16,53,15.40
2015,09,26,16,54,15.40
2015,09,26,16,55,15.40
2015,09,26,16,56,15.40
2015,09,26,16,57,15.40
2015,09,26,16,58,15.40
2015,09,26,16,59,15.40
2015,09,26,17,00,15.40
2015,09,26,17,01,15.40
2015,09,26,17,02,15.40
2015,09,26,17,03,15.40
2015,09,26,17,04,15.40
2015,09,26,17,05,15.40
2015,09,26,17,06,15.40
2015,09,26,17,07,15.40
2015,09,26,17,08,15.40
2015,09,26,17,09,15.40
2015,09,26,17,10,15.40
2015,09,26,17,11,15.40
2015,09,26,17,12,15.30
2015,09,26,17,13,15.30
2015,09,26,17,14,15.30
2015,09,26,17,15,15.40
2015,09,26,17,16,15.40
2015,09,26,17,17,15.40
2015,09,26,17,18,15.40
2015,09,26,17,19,15.40
2015,09,26,17,20,15.40
2015,09,26,17,21,15.30
2015,09,26,17,22,15.30
2015,09,26,17,23,15.30
2015,09,26,17,24,15.30
2015,09,26,17,25,15.30
2015,09,26,17,26,15.30
2015,09,26,17,27,15.30
2015,09,26,17,28,15.20
2015,09,26,17,29,15.20
2015,09,26,17,30,15.20
2015,09,26,17,31,15.20
2015,09,26,17,32,15.20
2015,09,26,17,33,15.20